ARIANE 1 DEB, 26535

Orbit data source: Space-Track

ARIANE 1 DEB, 26535 is space debris in HEO originally from a launch on Mon, 24 Dec 1979 UTC launched from the French Guiana (FRGUI). Debris objects in space refer to the collection of defunct objects orbiting the Earth. Examples of debris include non-operational satellites, rocket bodies, and fragments generated from explosions, collisions, or faulty payload assembly.

Loading next visibility...
Identifier
26535, 1979-104R
Orbit
HEO
Country
Flag of FRFR
Related business
Manufacturer
Unknown
Mission
Spacecraft
Bus & Motor
Unknown
Mass
Unknown
Launch date (UTC)
1979-12-24 (46 years ago)
Launch vehicle
Unknown
Launch site
French Guiana (FRGUI)
Object type
Payload
Rocket body
Debris
Shape & HBR
Unknown shape, 0.2 m
Radar Cross Section
Medium (>0.1 m² and <1 m²)

Expand to show TLE details & history
Last TLE update: 2 days ago

TLE from 2 days ago
0 ARIANE 1 DEB
1 26535U 79104R   25293.62952431  .00005356  00000-0  45103-2 0  9999
2 26535  19.8049  16.2321 5874658  75.1800 339.9585  4.13408992184637
Epoch: 2025-10-20T15:06Z
TLE epoch observation values (Epoch: 2025-10-20T15:06:30.900Z)
Latitude
0.00004°
Longitude
120.25649°
Altitude
2,959.444 km
Speed
7.814 km/s
True Right ascension
01h 04m 51s
True Declination
0° 00' 00"
Sunlit
Object was in full shadow at epoch
Visualization orbit readout
Latitude
Unknown
Longitude
Unknown
Altitude
Unknown
Speed
Unknown
Apparent Right ascension
Unknown
Apparent Declination
Unknown
Sunlit
N/A
Visualization observer readout
Local Sidereal Time
18:03:00
Azimuth
Unknown
Elevation
Unknown
Doppler factor
Unknown
Orbital elements
Apogee altitude
19,661.263 km
Perigee altitude
388.713 km
Semi-major axis
16,403.125 km
Eccentricity
0.58747
Inclination
19.8049°
RAAN
16.2321°
Arg. of periapsis
75.18°
True anomaly
284.61958°
Mean anomaly
339.9585°
Eccentric anomaly
317.00509°
Mean motion
1.03313 °/min
Orbital period
348.46 mins
BSTAR
0.0045103
Loading maneuver chart data...
Computing Atmospheric mass density...
Loading historical data...
Loading historical data...
Loading historical data...
Loading historical data...
Loading historical data...
Loading historical data...
Loading historical data...

Documentation

Showing up to 5 results
|